Regional Weather Roundup
Issued by NWS

Home | Current Version | Previous Version | Graphics & Text | Print | Product List | Glossary On
Versions: 1 2 3 4 5 6 7 8 9 10 11 12 13 14 15 16 17 18 19 20 21 22 23 24 25 26 27 28 29
000
ASUS45 KBOI 290710
RWRID

IDAHO REGIONAL WEATHER ROUNDUP
NATIONAL WEATHER SERVICE BOISE ID
100 AM MDT FRI APR 29 2016

NOTE: "FAIR" INDICATES FEW OR NO CLOUDS BELOW 12000 FEET
WITH NO SIGNIFICANT WEATHER AND/OR OBSTRUCTIONS TO VISIBILITY

IDZ012-014-290800-
SOUTHWEST IDAHO


CITY           SKY/WX    TMP DP  RH WIND       PRES   REMARKS
BOISE          MOCLDY    53  34  48 NW13      29.88R
CALDWELL       CLOUDY    53  38  56 W10       29.91R
MOUNTAIN HOME  PTCLDY    48  35  61 W10       29.88R
$$

IDZ016-017-290800-
SOUTHCENTRAL IDAHO


CITY           SKY/WX    TMP DP  RH WIND       PRES   REMARKS
BURLEY         CLOUDY    46  40  79 E6        29.87R
JEROME         CLOUDY    44  42  93 E8        29.86S
TWIN FALLS     CLOUDY    45  34  65 SW16      29.86S
$$

IDZ019>023-290800-
SOUTHEAST IDAHO


CITY           SKY/WX    TMP DP  RH WIND       PRES   REMARKS
IDAHO FALLS    CLOUDY    40  27  59 CALM      29.90S
POCATELLO      CLOUDY    43  31  62 N12       29.88S
REXBURG        CLOUDY    39  27  62 E3        29.89R
$$

IDZ006-010-011-018-031-032-290800-
CENTRAL IDAHO MOUNTAINS


CITY           SKY/WX    TMP DP  RH WIND       PRES   REMARKS
MCCALL         CLOUDY    38  35  89 W3        29.91S
HAILEY         DRIZZLE   41  37  87 CALM      29.92S
STANLEY          N/A     32  28  85 S5        29.92S WCI  27
SALMON         CLOUDY    39  32  75 E3        29.94F
CHALLIS        CLOUDY    39  30  70 NW6       29.91S WCI  35
$$

IDZ002-004-006-007-026-290800-
NORTHERN IDAHO


CITY           SKY/WX    TMP DP  RH WIND       PRES   REMARKS
LEWISTON       CLOUDY    53  46  77 NE7       29.96R
LOWELL           N/A     48  44  86 CALM      29.98S
COEUR D`ALENE  CLOUDY    50  34  53 E5        29.95F
MULLAN PASS    CLOUDY    31  28  89 VRB3      29.96S
$$




USA.gov is the U.S. government's official web portal to all federal, state and local government web resources and services.